FW5754 Weather Reports


time (UTC)temp
C
wind
direction
speed
KPH
gust
KPH
rain 1hr
cm
rain 24hr
cm
rain mn
cm
humidity
%
barometer
mb
20260506201031 14 186 14.5 40.2 0.00 0.03 0.03 84 1008.2
20260506200534 15 217 9.7 38.6 0.00 0.03 0.03 84 1008.2
20260506200044 -46 190 9.7 30.6 0.00 0.03 0.03 1008.2
20260506195530 -46 166 9.7 33.8 0.00 0.03 0.03 1008.3
20260506195034 -46 163 16.1 33.8 0.00 0.03 0.03 1008.4
20260506194540 -46 205 9.7 29.0 0.00 0.03 0.03 1008.5
20260506194033 -47 184 9.7 40.2 0.00 0.03 0.03 1008.4
20260506193533 -47 179 12.9 40.2 0.00 0.03 0.03 1008.5
20260506193041 -47 191 9.7 30.6 0.00 0.03 0.03 1008.7
20260506192533 -46 187 11.3 32.2 0.00 0.03 0.03 1008.8
20260506192035 -47 209 14.5 32.2 0.03 0.03 0.03 1008.9
20260506191538 -47 190 11.3 30.6 0.03 0.03 0.03 100 1008.9
20260506191034 -47 190 9.7 32.2 0.03 0.03 0.03 1009.0
20260506190535 -47 147 11.3 35.4 0.03 0.03 0.03 1009.0
20260506190044 -47 234 9.7 35.4 0.03 0.03 0.03 1009.1
20260506185533 -47 186 11.3 29.0 0.03 0.03 0.03 1009.0
20260506185032 -47 186 9.7 29.0 0.03 0.03 0.03 1009.2
20260506184547 -47 200 12.9 29.0 0.03 0.03 0.03 1009.1
20260506184034 -47 178 11.3 27.4 0.03 0.03 0.03 1009.2
20260506183534 -47 160 11.3 27.4 0.03 0.03 0.03 1009.2
20260506183041 14 194 8.0 27.4 0.03 0.03 0.03 84 1009.4
20260506182533 14 188 9.7 24.1 0.03 0.03 0.03 84 1009.3
20260506182034 15 189 11.3 25.7 0.00 0.00 0.00 1009.3
20260506181539 15 180 12.9 25.7 0.00 0.00 0.00 83 1009.5
20260506181032 15 212 8.0 43.5 0.00 0.00 0.00 82 1009.5
20260506180534 15 204 12.9 43.5 0.00 0.00 0.00 82 1009.6
20260506180040 15 183 9.7 29.0 0.00 0.00 0.00 81 1009.9
20260506175533 15 144 11.3 29.0 0.00 0.00 0.00 100 1009.9
20260506175038 15 172 9.7 35.4 0.00 0.00 0.00 80 1010.0
20260506174545 -45 185 12.9 35.4 0.00 0.00 0.00 1010.1
20260506174034 16 207 9.7 43.5 0.00 0.00 0.00 100 1010.1
20260506173534 16 221 11.3 43.5 0.00 0.00 0.00 78 1010.2
20260506173047 15 173 12.9 38.6 0.00 0.00 0.00 78 1010.2
20260506172533 -45 165 9.7 37.0 0.00 0.00 0.00 78 1010.2
20260506172038 15 190 14.5 35.4 0.00 0.00 0.00 78 1010.2
20260506171554 16 194 11.3 30.6 0.00 0.00 0.00 78 1010.3
20260506171034 15 191 14.5 45.1 0.00 0.00 0.00 78 1010.4
20260506170534 15 186 14.5 45.1 0.00 0.00 0.00 78 1010.4
20260506170053 15 146 11.3 38.6 0.00 0.00 0.00 78 1010.4
20260506165535 -45 180 16.1 41.8 0.00 0.00 0.00 1010.5
20260506165036 -45 183 14.5 41.8 0.00 0.00 0.00 1010.4
20260506164537 -45 200 12.9 33.8 0.00 0.00 0.00 1010.7
20260506164033 -45 179 14.5 38.6 0.00 0.00 0.00 100 1010.7
20260506163533 -45 186 14.5 38.6 0.00 0.00 0.00 1010.6
20260506163045 -45 188 14.5 38.6 0.00 0.00 0.00 1010.6
20260506162533 70 165 14.5 29.0 0.00 0.00 0.00 1010.5
20260506162033 16 225 14.5 32.2 0.00 0.00 0.00 76 1010.6
20260506161543 16 146 12.9 38.6 0.00 0.00 0.00 76 1010.6
20260506161034 16 184 16.1 38.6 0.00 0.00 0.00 76 1010.8
20260506160534 16 160 14.5 38.6 0.00 0.00 0.00 76 1011.0
20260506160052 16 154 12.9 37.0 0.00 0.00 0.00 77 1011.1
20260506155534 16 190 11.3 37.0 0.00 0.00 0.00 77 1011.1
20260506155033 16 171 14.5 35.4 0.00 0.00 0.00 76 1011.3
20260506154541 16 182 14.5 35.4 0.00 0.00 0.00 76 1011.1
20260506154036 16 197 11.3 35.4 0.00 0.00 0.00 76 1011.2
20260506153533 -45 182 12.9 35.4 0.00 0.00 0.00 1011.3
20260506153037 -45 198 14.5 37.0 0.00 0.00 0.00 1011.2
20260506152531 -45 149 12.9 38.6 0.00 0.00 0.00 1011.2
20260506152033 -45 140 12.9 38.6 0.00 0.00 0.00 1011.0
20260506151544 -45 224 12.9 32.2 0.00 0.00 0.00 1011.1
20260506151034 -45 208 14.5 40.2 0.00 0.00 0.00 1011.3
20260506150530 -45 180 12.9 40.2 0.00 0.00 0.00 1011.3
20260506150042 17 192 11.3 38.6 0.00 0.00 0.00 74 1011.3
20260506145531 17 190 14.5 38.6 0.00 0.00 0.00 1011.3
20260506145033 17 224 16.1 45.1 0.00 0.00 0.00 74 1011.3
20260506144559 17 201 12.9 45.1 0.00 0.00 0.00 75 1011.3
20260506144035 17 163 17.7 41.8 0.00 0.00 0.00 75 1011.3
20260506143534 17 190 16.1 41.8 0.00 0.00 0.00 75 1011.3
20260506143038 17 202 17.7 38.6 0.00 0.00 0.00 75 1011.3
20260506142534 17 184 12.9 41.8 0.00 0.00 0.00 1011.6
20260506142033 16 169 16.1 41.8 0.00 0.00 0.00 76 1011.6
20260506141537 16 201 11.3 38.6 0.00 0.00 0.00 76 1011.7
20260506141030 16 150 16.1 38.6 0.00 0.00 0.00 76 1011.6
20260506140534 16 180 11.3 37.0 0.00 0.00 0.00 76 1011.5
20260506140037 16 182 11.3 33.8 0.00 0.00 0.00 75 1011.6
20260506135533 16 204 12.9 33.8 0.00 0.00 0.00 1011.5
20260506135034 16 174 11.3 37.0 0.00 0.00 0.00 76 1011.4
20260506134539 17 200 14.5 37.0 0.00 0.00 0.00 75 1011.4
20260506134032 17 185 14.5 45.1 0.00 0.00 0.00 74 1011.1
20260506133529 17 137 11.3 45.1 0.00 0.00 0.00 75 1011.3
20260506133040 17 180 11.3 41.8 0.00 0.00 0.00 75 1011.4
20260506132539 17 204 12.9 41.8 0.00 0.00 0.00 75 1011.5
20260506132033 17 201 11.3 38.6 0.00 0.00 0.00 75 1011.2
20260506131546 -45 225 17.7 43.5 0.00 0.00 0.00 1011.2
20260506131033 -45 205 16.1 45.1 0.00 0.00 0.00 1011.4
20260506130534 17 201 17.7 46.7 0.00 0.00 0.00 1011.4
20260506130049 -45 148 17.7 46.7 0.00 0.00 0.00 1011.6
20260506125533 17 184 16.1 30.6 0.00 0.00 0.00 75 1011.6
20260506125033 17 186 9.7 30.6 0.00 0.00 0.00 76 1011.8
20260506124543 16 217 12.9 29.0 0.00 0.00 0.00 76 1011.7
20260506124033 -45 192 11.3 30.6 0.00 0.00 0.00 77 1011.7
20260506123533 16 146 14.5 37.0 0.00 0.00 0.00 77 1011.7
20260506123050 16 226 14.5 41.8 0.00 0.00 0.00 78 1011.7
20260506122530 16 202 14.5 43.5 0.00 0.00 0.00 78 1011.7
20260506122033 16 215 11.3 43.5 0.00 0.00 0.00 79 1011.6
20260506121541 16 192 12.9 30.6 0.00 0.00 0.00 79 1011.6
20260506121036 16 206 9.7 30.6 0.00 0.00 0.00 80 1011.5
20260506120535 15 184 12.9 33.8 0.00 0.00 0.00 80 1011.5
20260506120053 15 148 12.9 37.0 0.00 0.00 0.00 100 1011.5
20260506115535 -45 165 14.5 37.0 0.00 0.00 0.00 1011.5
20260506115033 -45 209 14.5 38.6 0.00 0.00 0.00 1011.5
20260506114552 -45 190 12.9 41.8 0.00 0.00 0.00 1011.5
20260506114033 -46 178 11.3 48.3 0.00 0.00 0.00 1011.5
20260506113533 -46 181 12.9 48.3 0.00 0.00 0.00 1011.5
20260506113044 -46 179 11.3 37.0 0.00 0.00 0.00 1011.6
20260506112534 -46 184 9.7 37.0 0.00 0.00 0.00 1011.5
20260506112033 15 217 12.9 41.8 0.00 0.00 0.00 100 1011.5
20260506111548 15 190 16.1 41.8 0.00 0.00 0.00 82 1011.6
20260506111033 15 209 9.7 46.7 0.00 0.00 0.00 83 1011.4
20260506110533 -46 221 14.5 46.7 0.00 0.00 0.00 1011.5
20260506110048 -47 173 12.9 33.8 0.00 0.00 0.00 1011.4
20260506105531 -47 194 12.9 29.0 0.00 0.00 0.00 1011.5
20260506105030 14 194 11.3 30.6 0.00 0.00 0.00 100 1011.5
20260506104548 -47 178 12.9 30.6 0.00 0.00 0.00 100 1011.6
20260506104033 13 194 9.7 33.8 0.00 0.00 0.00 84 1011.4
20260506103533 13 186 12.9 33.8 0.00 0.00 0.00 84 1011.4
20260506103053 -48 201 12.9 32.2 0.00 0.00 0.00 84 1011.5
20260506102536 13 198 11.3 27.4 0.00 0.00 0.00 84 1011.3
20260506102034 13 217 11.3 27.4 0.00 0.00 0.00 1011.3
20260506101538 13 204 9.7 37.0 0.00 0.00 0.00 84 1011.4
20260506101034 13 190 12.9 38.6 0.00 0.00 0.00 84 1011.3
20260506100533 13 192 12.9 38.6 0.00 0.00 0.00 84 1011.4
20260506095533 13 189 11.3 32.2 0.00 0.00 0.00 84 1011.3
20260506095033 13 152 12.9 32.2 0.00 0.00 0.00 84 1011.1
20260506094539 14 190 11.3 35.4 0.00 0.00 0.00 83 1011.2
20260506094032 14 134 12.9 41.8 0.00 0.00 0.00 83 1011.3
20260506093530 14 178 12.9 41.8 0.00 0.00 0.00 83 1011.3
20260506093040 14 193 16.1 35.4 0.00 0.00 0.00 83 1011.4
20260506092533 14 178 12.9 29.0 0.00 0.00 0.00 100 1011.4
20260506092030 14 178 11.3 37.0 0.00 0.00 0.00 83 1011.3
20260506091538 14 180 11.3 37.0 0.00 0.00 0.00 83 1011.4
20260506091033 14 142 16.1 43.5 0.00 0.00 0.00 83 1011.3
20260506090532 14 198 14.5 46.7 0.00 0.00 0.00 1011.3
20260506090037 14 184 17.7 46.7 0.00 0.00 0.00 83 1011.5
20260506085533 14 213 16.1 37.0 0.00 0.00 0.00 83 1011.5
20260506085033 14 185 14.5 41.8 0.00 0.00 0.00 83 1011.5
20260506084541 14 177 12.9 41.8 0.00 0.00 0.00 83 1011.5
20260506084033 14 188 11.3 33.8 0.00 0.00 0.00 83 1011.6
20260506083533 14 227 12.9 38.6 0.00 0.00 0.00 1011.7
20260506083045 -47 159 11.3 38.6 0.00 0.00 0.00 1011.6
20260506082533 -47 190 12.9 35.4 0.00 0.00 0.00 1011.6
20260506082033 -47 148 11.3 35.4 0.00 0.00 0.00 1011.7
20260506081543 -47 195 14.5 33.8 0.00 0.00 0.00 1011.7
20260506081030 -47 172 12.9 35.4 0.00 0.00 0.00 1011.7
20260506080530 -47 188 16.1 35.4 0.00 0.00 0.00 1011.7
20260506073038 -46 191 12.9 43.5 0.00 0.00 0.00 1011.9
20260506072533 15 186 17.7 41.8 0.00 0.00 0.00 80 1011.8
20260506072033 15 168 14.5 35.4 0.00 0.00 0.00 80 1011.8
20260506071549 15 188 12.9 48.3 0.00 0.00 0.00 80 1012.0
20260506071033 15 198 11.3 48.3 0.00 0.00 0.00 80 1011.9
20260506070534 15 190 19.3 45.1 0.00 0.00 0.00 80 1011.8
20260506062035 15 202 14.5 35.4 0.00 0.00 0.00 80 1012.0
20260506061537 15 189 14.5 38.6 0.00 0.00 0.00 80 1011.9
20260506061031 15 195 14.5 38.6 0.00 0.00 0.00 80 1011.9
20260506060532 -46 259 14.5 38.6 0.00 0.00 0.00 100 1011.9
20260506051033 -47 198 9.7 32.2 0.00 0.00 0.00 1012.4
20260506050530 -46 190 14.5 33.8 0.00 0.00 0.00 1012.3
20260506045032 15 225 12.9 40.2 0.00 0.00 0.00 79 1012.3
20260506044546 15 186 14.5 40.2 0.00 0.00 0.00 79 1012.3
20260506044031 15 173 12.9 30.6 0.00 0.00 0.00 78 1012.2
20260506043530 15 157 14.5 37.0 0.00 0.00 0.00 78 1012.3
20260506043039 15 198 12.9 37.0 0.00 0.00 0.00 78 1012.2
20260506042531 15 178 11.3 35.4 0.00 0.00 0.00 100 1012.4
20260506042031 -45 170 14.5 40.2 0.00 0.00 0.00 1012.4
20260506041539 -45 167 14.5 41.8 0.00 0.00 0.00 1012.3
20260506041032 -45 182 17.7 49.9 0.00 0.00 0.00 1012.4
20260506040530 15 184 14.5 49.9 0.00 0.00 0.00 76 1012.4
20260506040039 15 202 17.7 46.7 0.00 0.00 0.00 76 1012.4
20260506035533 15 183 16.1 43.5 0.00 0.00 0.00 76 1012.5
20260506035034 15 239 16.1 43.5 0.00 0.00 0.00 76 1012.3
20260506034539 15 189 14.5 35.4 0.00 0.00 0.00 75 1012.4
20260506034030 15 214 12.9 35.4 0.00 0.00 0.00 75 1012.4
20260506033531 15 175 16.1 41.8 0.00 0.00 0.00 75 1012.4
20260506033043 15 198 14.5 41.8 0.00 0.00 0.00 75 1012.4
20260506032530 15 185 16.1 46.7 0.00 0.00 0.00 75 1012.7
20260506032031 15 173 12.9 46.7 0.00 0.00 0.00 75 1012.4
20260506031539 16 211 12.9 35.4 0.00 0.00 0.00 75 1012.5
20260506031034 16 206 14.5 35.4 0.00 0.00 0.00 75 1012.4
20260506030532 16 190 16.1 35.4 0.00 0.00 0.00 75 1012.5
20260506030056 16 182 12.9 35.4 0.00 0.00 0.00 74 1012.5
20260506025530 16 182 14.5 49.9 0.00 0.00 0.00 74 1012.4
20260506025034 16 196 16.1 49.9 0.00 0.00 0.00 74 1012.3
20260506024550 16 211 14.5 45.1 0.00 0.00 0.00 74 1012.4
20260506024031 16 187 14.5 51.5 0.00 0.00 0.00 73 1012.3
20260506023531 16 201 16.1 51.5 0.00 0.00 0.00 73 1012.5
20260506023036 16 193 14.5 40.2 0.00 0.00 0.00 73 1012.5
20260506022530 16 222 12.9 41.8 0.00 0.00 0.00 73 1012.3
20260506022030 16 166 16.1 41.8 0.00 0.00 0.00 73 1012.3
20260506021540 16 224 11.3 43.5 0.00 0.00 0.00 73 1012.3
20260506021030 16 189 12.9 43.5 0.00 0.00 0.00 73 1012.3
20260506020534 16 202 12.9 43.5 0.00 0.00 0.00 72 1012.4
20260506020039 16 233 17.7 43.5 0.00 0.00 0.00 72 1012.3
20260506015531 16 167 12.9 43.5 0.00 0.00 0.00 72 1012.4
20260506015033 16 217 19.3 43.5 0.00 0.00 0.00 72 1012.3
20260506014552 16 211 16.1 45.1 0.00 0.00 0.00 72 1012.2
20260506014030 16 246 14.5 46.7 0.00 0.00 0.00 72 1012.2
20260506013531 16 200 17.7 46.7 0.00 0.00 0.00 72 1011.9
20260506013037 16 186 14.5 48.3 0.00 0.00 0.00 72 1012.1
20260506012531 16 186 17.7 48.3 0.00 0.00 0.00 72 1012.0
20260506012032 16 226 17.7 51.5 0.00 0.00 0.00 72 1012.1
20260506011541 16 217 19.3 51.5 0.00 0.00 0.00 72 1012.0
20260506011035 16 156 19.3 38.6 0.00 0.00 0.00 72 1011.8
20260506010531 16 164 17.7 51.5 0.00 0.00 0.00 72 1011.8
20260506010049 16 186 20.9 51.5 0.00 0.00 0.00 72 1011.8
20260506005531 16 193 17.7 41.8 0.00 0.00 0.00 72 1011.6
20260506005030 16 190 19.3 38.6 0.00 0.00 0.00 72 1011.6
20260506004548 16 206 14.5 38.6 0.00 0.00 0.00 72 1011.5
20260506004030 16 197 16.1 38.6 0.00 0.00 0.00 72 1011.4
20260506003531 16 187 14.5 40.2 0.00 0.00 0.00 72 1011.4
20260506003043 16 234 14.5 43.5 0.00 0.00 0.00 72 1011.4
20260506002530 16 211 17.7 43.5 0.00 0.00 0.00 72 1011.2
20260506002031 16 180 14.5 43.5 0.00 0.00 0.00 72 1011.2
20260506001546 16 202 14.5 45.1 0.00 0.00 0.00 72 1010.9
20260506001031 16 176 16.1 48.3 0.00 0.00 0.00 72 1010.8
20260506000531 16 219 16.1 48.3 0.00 0.00 0.00 72 1010.9
20260506000042 16 178 16.1 41.8 0.00 0.00 0.00 73 1010.8
20260505235530 16 165 17.7 35.4 0.00 0.00 0.00 73 1010.7
20260505235031 16 148 11.3 33.8 0.00 0.00 0.00 73 1010.8
20260505234539 16 193 14.5 35.4 0.00 0.00 0.00 72 1010.7
20260505234033 16 209 14.5 35.4 0.00 0.00 0.00 72 1010.6
20260505233530 16 208 12.9 35.4 0.00 0.00 0.00 72 1010.5
20260505233044 16 184 16.1 43.5 0.00 0.00 0.00 72 1010.5
20260505232530 16 199 17.7 43.5 0.00 0.00 0.00 72 1010.4
20260505232030 16 190 14.5 43.5 0.00 0.00 0.00 72 1010.4
20260505231544 16 202 12.9 40.2 0.00 0.00 0.00 72 1010.5
20260505231031 16 193 16.1 46.7 0.00 0.00 0.00 72 1010.3
20260505230530 16 192 14.5 46.7 0.00 0.00 0.00 72 1010.3
20260505230048 16 205 19.3 46.7 0.00 0.00 0.00 72 1010.2
20260505225530 16 193 12.9 46.7 0.00 0.00 0.00 72 1010.2
20260505225033 16 182 16.1 46.7 0.00 0.00 0.00 72 1010.2
20260505224550 16 190 16.1 43.5 0.00 0.00 0.00 72 1010.1
20260505224031 16 192 12.9 37.0 0.00 0.00 0.00 72 1010.0
20260505223530 16 236 12.9 37.0 0.00 0.00 0.00 72 1010.2
20260505223050 16 195 12.9 40.2 0.00 0.00 0.00 72 1010.1
20260505222531 16 198 11.3 40.2 0.00 0.00 0.00 72 1010.0
20260505222033 16 189 12.9 40.2 0.00 0.00 0.00 72 1009.9
20260505221545 16 242 16.1 40.2 0.00 0.00 0.00 72 1009.8
20260505221031 16 169 12.9 37.0 0.00 0.00 0.00 72 1009.8
20260505220532 16 196 14.5 37.0 0.00 0.00 0.00 72 1009.8
20260505220045 16 229 12.9 32.2 0.00 0.00 0.00 72 1009.7
20260505215530 16 137 14.5 32.2 0.00 0.00 0.00 72 1009.7
20260505215030 16 157 12.9 35.4 0.00 0.00 0.00 72 1009.8
20260505214540 16 190 16.1 37.0 0.00 0.00 0.00 72 1009.8
20260505214029 16 184 11.3 40.2 0.00 0.00 0.00 72 1009.8
20260505213534 16 198 12.9 40.2 0.00 0.00 0.00 72 1009.9
20260505213045 16 174 12.9 29.0 0.00 0.00 0.00 72 1009.7
20260505212533 -45 155 11.3 38.6 0.00 0.00 0.00 1009.7
20260505212030 16 175 12.9 38.6 0.00 0.00 0.00 72 1009.7
20260505211545 16 175 11.3 27.4 0.00 0.00 0.00 72 1009.6
20260505211032 16 190 11.3 27.4 0.00 0.00 0.00 72 1009.5
20260505210530 16 184 11.3 27.4 0.00 0.00 0.00 72 1009.7
20260505210045 17 161 11.3 25.7 0.00 0.00 0.00 71 1009.5
20260505205534 17 142 12.9 33.8 0.00 0.00 0.00 71 1009.6
20260505205030 17 171 14.5 33.8 0.00 0.00 0.00 71 1009.7
20260505204540 17 209 9.7 33.8 0.00 0.00 0.00 72 1009.5
20260505204034 17 161 14.5 33.8 0.00 0.00 0.00 71 1009.5
20260505203530 17 202 11.3 33.8 0.00 0.00 0.00 71 1009.5
20260505203044 17 164 12.9 35.4 0.00 0.00 0.00 1009.5
20260505202529 -45 179 14.5 35.4 0.00 0.00 0.00 91 1009.6
20260505202030 -45 135 12.9 38.6 0.00 0.00 0.00 1009.7
20260505201545 -44 188 14.5 38.6 0.00 0.00 0.00 1009.6